Madera North
DateTemperatureDew Point
09/05 - 06:30 PM84.5°52.5°
09/05 - 06:15 PM85.6°52.1°
09/05 - 06:00 PM86.1°52.0°
09/05 - 05:45 PM86.5°52.2°
09/05 - 05:30 PM87.0°52.4°
09/05 - 05:15 PM87.2°52.1°
09/05 - 05:00 PM87.4°51.7°
09/05 - 04:45 PM87.8°51.6°
09/05 - 04:30 PM88.2°51.7°
09/05 - 04:15 PM88.6°52.0°
09/05 - 04:00 PM88.2°52.0°
09/05 - 03:45 PM87.3°51.7°
09/05 - 03:30 PM87.2°51.8°
09/05 - 03:15 PM87.3°51.8°
09/05 - 03:00 PM87.3°51.6°
09/05 - 02:45 PM86.9°51.4°
09/05 - 02:30 PM86.8°51.2°
09/05 - 02:15 PM86.0°51.0°
09/05 - 02:00 PM86.3°50.8°
09/05 - 01:45 PM85.2°50.4°
09/05 - 01:30 PM84.9°50.0°
09/05 - 01:15 PM85.0°48.9°
09/05 - 01:00 PM84.6°48.5°
09/05 - 12:45 PM83.7°47.7°
09/05 - 12:30 PM83.4°47.4°
09/05 - 12:15 PM82.1°47.1°
09/05 - 12:00 PM81.3°46.4°
09/05 - 11:45 AM81.4°46.5°
09/05 - 11:30 AM79.7°46.8°
09/05 - 11:15 AM79.4°46.9°
09/05 - 11:00 AM78.4°46.8°
09/05 - 10:45 AM77.7°47.2°
09/05 - 10:30 AM76.6°47.1°
09/05 - 10:15 AM76.0°46.8°
09/05 - 10:00 AM74.7°46.6°
09/05 - 09:45 AM74.6°45.9°
09/05 - 09:30 AM73.9°46.8°
09/05 - 09:15 AM72.7°47.0°
09/05 - 09:00 AM72.0°47.7°
09/05 - 08:45 AM70.9°48.1°
09/05 - 08:30 AM69.7°48.5°
09/05 - 08:15 AM68.0°48.3°
09/05 - 08:00 AM66.7°48.6°
09/05 - 07:45 AM65.5°48.9°
09/05 - 07:30 AM64.2°49.3°
09/05 - 07:15 AM62.0°49.9°
09/05 - 07:00 AM59.9°50.2°
09/05 - 06:45 AM58.1°49.5°
09/05 - 06:30 AM57.2°48.4°
09/05 - 06:15 AM57.4°48.0°
09/05 - 06:00 AM57.0°48.0°
09/05 - 05:45 AM57.3°48.2°
09/05 - 05:30 AM57.9°48.3°
09/05 - 05:15 AM58.3°48.6°
09/05 - 05:00 AM58.7°48.9°
09/05 - 04:45 AM59.3°49.2°
09/05 - 04:30 AM59.4°49.3°
09/05 - 04:15 AM59.6°49.4°
09/05 - 04:00 AM59.9°49.3°
09/05 - 03:45 AM60.2°49.5°
09/05 - 03:30 AM60.7°49.7°
09/05 - 03:15 AM61.0°50.0°
09/05 - 03:00 AM61.4°50.3°
09/05 - 02:45 AM61.8°50.4°
09/05 - 02:30 AM62.1°50.6°
09/05 - 02:15 AM62.1°50.6°
09/05 - 02:00 AM62.7°50.7°
09/05 - 01:45 AM63.2°50.6°
09/05 - 01:30 AM63.6°50.5°
09/05 - 01:15 AM64.0°50.3°
09/05 - 01:00 AM64.3°50.2°
09/05 - 12:45 AM64.8°50.0°
09/05 - 12:30 AM65.3°49.8°
09/05 - 12:15 AM65.7°49.4°
09/05 - 12:00 AM66.2°49.0°
09/04 - 11:45 PM66.7°48.5°
09/04 - 11:30 PM67.3°48.1°
09/04 - 11:15 PM67.5°48.1°
09/04 - 11:00 PM67.9°48.1°
09/04 - 10:45 PM68.3°47.9°
09/04 - 10:30 PM68.9°47.9°
09/04 - 10:15 PM69.2°48.1°
09/04 - 10:00 PM69.4°48.5°
09/04 - 09:45 PM68.3°49.3°
09/04 - 09:30 PM68.2°50.1°
09/04 - 09:15 PM69.1°50.3°
09/04 - 09:00 PM70.1°50.4°
09/04 - 08:45 PM70.8°50.6°
09/04 - 08:30 PM72.0°50.7°
09/04 - 08:15 PM72.6°50.5°
09/04 - 08:00 PM72.5°50.4°
09/04 - 07:45 PM73.0°50.5°
09/04 - 07:30 PM74.2°50.4°
09/04 - 07:15 PM75.1°50.1°
09/04 - 07:00 PM76.2°50.1°
09/04 - 06:45 PM77.8°50.2°
09/04 - 06:30 PM78.8°50.1°
09/04 - 06:15 PM79.7°49.7°
09/04 - 06:00 PM80.3°49.6°
09/04 - 05:45 PM81.0°49.6°
09/04 - 05:30 PM82.1°50.0°
09/04 - 05:15 PM82.1°49.6°
09/04 - 05:00 PM82.9°49.5°
09/04 - 04:45 PM83.1°49.6°
09/04 - 04:30 PM83.1°50.0°
09/04 - 04:15 PM82.8°50.5°
09/04 - 04:00 PM82.5°50.6°
09/04 - 03:45 PM83.1°51.5°
09/04 - 03:30 PM83.3°52.2°
09/04 - 03:15 PM82.7°52.5°
09/04 - 03:00 PM82.2°52.6°
09/04 - 02:45 PM82.2°52.8°
09/04 - 02:30 PM82.4°53.3°
09/04 - 02:15 PM82.6°53.6°
09/04 - 02:00 PM81.6°54.4°
09/04 - 01:45 PM80.5°54.6°
09/04 - 01:30 PM80.4°54.3°
09/04 - 01:15 PM80.9°54.5°
09/04 - 01:00 PM80.5°54.5°
09/04 - 12:45 PM79.4°54.2°
09/04 - 12:30 PM79.6°54.5°
09/04 - 12:15 PM78.1°55.2°
09/04 - 12:00 PM77.6°55.3°
09/04 - 11:45 AM77.3°55.4°
09/04 - 11:30 AM77.3°55.9°
09/04 - 11:15 AM75.7°56.6°
09/04 - 11:00 AM75.3°56.8°
09/04 - 10:45 AM74.8°56.8°
09/04 - 10:30 AM74.7°57.6°
09/04 - 10:15 AM73.2°57.6°
09/04 - 10:00 AM73.0°57.8°
09/04 - 09:45 AM72.9°57.9°
09/04 - 09:30 AM73.2°58.3°
09/04 - 09:15 AM71.2°57.6°
09/04 - 09:00 AM70.5°57.7°
09/04 - 08:45 AM69.1°57.5°
09/04 - 08:30 AM68.4°57.8°
09/04 - 08:15 AM67.5°57.8°
09/04 - 08:00 AM66.6°57.9°
09/04 - 07:45 AM65.5°58.0°
09/04 - 07:30 AM64.0°57.9°
09/04 - 07:15 AM63.2°58.1°
09/04 - 07:00 AM62.4°58.2°
09/04 - 06:45 AM61.5°58.2°
09/04 - 06:30 AM61.4°58.0°
09/04 - 06:15 AM61.3°58.0°
09/04 - 06:00 AM61.5°58.0°
09/04 - 05:45 AM61.6°58.1°
09/04 - 05:30 AM61.5°58.0°
09/04 - 05:15 AM61.2°57.8°
09/04 - 05:00 AM61.0°57.6°
09/04 - 04:45 AM61.1°57.5°
09/04 - 04:30 AM61.3°57.5°
09/04 - 04:15 AM61.6°57.5°
09/04 - 04:00 AM61.8°57.4°
09/04 - 03:45 AM62.1°57.4°
09/04 - 03:30 AM62.4°57.4°
09/04 - 03:15 AM62.8°57.5°
09/04 - 03:00 AM63.1°57.5°
09/04 - 02:45 AM63.3°57.4°
09/04 - 02:30 AM63.7°57.7°
09/04 - 02:15 AM63.8°57.6°
09/04 - 02:00 AM64.0°57.6°
09/04 - 01:45 AM64.1°57.5°
09/04 - 01:30 AM64.3°57.6°
09/04 - 01:15 AM64.8°57.7°
09/04 - 01:00 AM65.3°57.8°
09/04 - 12:45 AM65.8°57.8°
09/04 - 12:30 AM66.2°57.9°
09/04 - 12:15 AM66.5°57.8°
09/04 - 12:00 AM66.9°57.8°
09/03 - 11:45 PM67.3°57.7°
09/03 - 11:30 PM67.8°57.8°
09/03 - 11:15 PM68.2°57.9°
09/03 - 11:00 PM68.7°58.0°
09/03 - 10:45 PM69.0°57.9°
09/03 - 10:30 PM69.2°57.5°
09/03 - 10:15 PM69.1°56.8°
09/03 - 10:00 PM69.5°56.5°
09/03 - 09:45 PM70.0°56.4°
09/03 - 09:30 PM70.1°56.2°
09/03 - 09:15 PM70.4°56.0°
09/03 - 09:00 PM70.8°55.7°
09/03 - 08:45 PM71.6°55.2°
09/03 - 08:30 PM72.6°54.5°
09/03 - 08:15 PM73.4°53.4°
09/03 - 08:00 PM74.0°51.1°
09/03 - 07:45 PM75.5°47.9°